FW1786 Weather Reports


Display with metric or nautical units.
time (UTC)temp
F
wind
direction
speed
MPH
gust
MPH
rain 1hr
in
rain 24hr
in
rain mn
in
humidity
%
barometer
mb
20260508121510 44 234 0.0 1.0 0.00 0.00 0.00 94 1014.9
20260508120011 44 218 0.0 0.0 0.00 0.00 0.00 94 1014.7
20260508114508 44 263 0.0 0.0 0.00 0.00 0.00 94 1014.5
20260508113016 43 290 0.0 0.0 0.00 0.00 0.00 94 1014.4
20260508111511 43 292 0.0 0.0 0.00 0.00 0.00 94 1014.1
20260508110017 43 292 0.0 0.0 0.00 0.00 0.00 94 1013.9
20260508104520 43 277 0.0 0.0 0.00 0.00 0.00 94 1014.0
20260508103014 43 277 0.0 0.0 0.00 0.00 0.00 94 1013.9
20260508101518 43 277 0.0 0.0 0.00 0.00 0.00 94 1013.8
20260508100024 43 281 0.0 0.0 0.00 0.00 0.00 94 1013.9
20260508094519 43 281 0.0 0.0 0.00 0.00 0.00 94 1013.8
20260508093022 43 224 0.0 0.0 0.00 0.00 0.00 93 1013.8
20260508091518 43 229 0.0 0.0 0.00 0.00 0.00 93 1013.8
20260508090024 43 227 0.0 0.0 0.00 0.00 0.00 93 1013.9
20260508084524 43 227 0.0 0.0 0.00 0.00 0.00 93 1013.9
20260508083020 43 227 0.0 0.0 0.00 0.00 0.00 93 1014.0
20260508081516 43 227 0.0 0.0 0.00 0.00 0.00 93 1014.2
20260508080030 43 227 0.0 0.0 0.00 0.00 0.00 93 1014.4
20260508074522 44 228 0.0 1.0 0.00 0.00 0.00 93 1014.5
20260508073026 44 226 0.0 1.0 0.00 0.00 0.00 93 1014.5
20260508071526 44 226 0.0 1.0 0.00 0.00 0.00 92 1014.7
20260508070022 44 240 0.0 1.0 0.00 0.00 0.00 92 1014.9
20260508064535 44 240 0.0 0.0 0.00 0.00 0.00 92 1015.1
20260508063027 44 240 0.0 1.0 0.00 0.00 0.00 91 1015.4
20260508061532 45 234 0.0 1.0 0.00 0.00 0.00 91 1015.5
20260508060027 45 235 0.0 1.0 0.00 0.00 0.00 91 1015.6
20260508054532 45 235 0.0 1.0 0.00 0.00 0.00 90 1015.6
20260508053024 46 205 0.0 1.0 0.00 0.00 0.00 90 1015.8
20260508051518 46 184 0.0 2.0 0.00 0.00 0.00 89 1015.6
20260508050020 47 192 0.0 2.0 0.00 0.00 0.00 89 1015.7
20260508044521 47 240 0.0 2.0 0.00 0.00 0.00 88 1015.8
20260508043024 48 182 0.0 1.0 0.00 0.00 0.00 87 1016.0
20260508041523 49 188 0.0 3.0 0.00 0.00 0.00 86 1015.8
20260508040040 49 180 1.0 3.0 0.00 0.00 0.00 85 1015.9
20260508034536 49 186 1.0 2.0 0.00 0.00 0.00 86 1016.0
20260508033022 50 188 0.0 1.0 0.00 0.00 0.00 86 1015.8
20260508031523 50 188 0.0 3.0 0.00 0.00 0.00 83 1015.7
20260508030026 52 190 1.0 3.0 0.00 0.00 0.00 81 1015.6
20260508024528 52 185 0.0 3.0 0.00 0.00 0.00 80 1015.4
20260508023024 53 188 1.0 2.0 0.00 0.00 0.00 79 1015.4
20260508021520 53 189 0.0 2.0 0.00 0.00 0.00 78 1015.4
20260508020008 54 184 1.0 2.0 0.00 0.00 0.00 78 1015.1
20260508014508 54 293 0.0 0.0 0.00 0.00 0.00 77 1014.7
20260508013011 55 293 0.0 1.0 0.00 0.00 0.00 75 1014.5
20260508011509 57 293 0.0 0.0 0.00 0.00 0.00 73 1014.4
20260508010013 59 294 0.0 1.0 0.00 0.00 0.00 68 1014.4
20260508004508 61 294 0.0 0.0 0.00 0.00 0.00 61 1014.5
20260508003012 63 294 0.0 1.0 0.00 0.00 0.00 59 1014.5
20260508001514 65 293 0.0 4.0 0.00 0.00 0.00 51 1014.5
20260508000017 65 352 0.0 3.0 0.00 0.00 0.00 50 1014.5
20260507234528 66 338 0.0 4.0 0.00 0.00 0.00 51 1014.5
20260507233017 67 129 1.0 5.0 0.00 0.00 0.00 42 1014.6
20260507231518 67 317 1.0 4.0 0.00 0.00 0.00 47 1014.7
20260507230023 67 343 1.0 6.0 0.00 0.00 0.00 42 1014.7
20260507224522 68 329 0.0 5.0 0.00 0.00 0.00 45 1015.0
20260507223021 68 257 1.0 7.0 0.00 0.00 0.00 45 1015.1
20260507221530 68 243 0.0 8.0 0.00 0.00 0.00 41 1015.0
20260507220021 68 210 2.0 5.0 0.00 0.00 0.00 42 1015.0
20260507214524 68 15 2.0 4.0 0.00 0.00 0.00 41 1015.2
20260507213029 68 352 2.0 8.0 0.00 0.00 0.00 42 1015.4
20260507211528 68 240 4.0 8.0 0.00 0.00 0.00 40 1015.4
20260507210028 67 255 2.0 8.0 0.00 0.00 0.00 40 1015.6
20260507204523 68 210 3.0 7.0 0.00 0.00 0.00 38 1015.6
20260507203027 68 252 1.0 8.0 0.00 0.00 0.00 40 1015.8
20260507201528 67 244 1.0 4.0 0.00 0.00 0.00 39 1016.1
20260507200013 67 30 4.0 9.0 0.00 0.00 0.00 38 1016.1
20260507194523 67 297 2.0 8.0 0.00 0.00 0.00 40 1016.6
20260507193015 67 184 3.0 9.0 0.00 0.00 0.00 41 1016.7
20260507191512 66 305 2.0 9.0 0.00 0.00 0.00 38 1016.7
20260507190018 66 186 1.0 7.0 0.00 0.00 0.00 40 1016.8
20260507184521 65 217 2.0 5.0 0.00 0.00 0.00 39 1017.0
20260507183017 66 144 2.0 7.0 0.00 0.00 0.00 41 1017.3
20260507181508 65 144 3.0 7.0 0.00 0.00 0.00 36 1017.5
20260507180018 64 317 2.0 6.0 0.00 0.00 0.00 39 1017.8
20260507174519 64 260 2.0 11.0 0.00 0.00 0.00 1018.1
20260507173037 64 184 1.0 5.0 0.00 0.00 0.00 42 1018.2
20260507171520 63 208 1.0 8.0 0.00 0.00 0.00 42 1018.3
20260507170019 63 291 2.0 7.0 0.00 0.00 0.00 1018.4
20260507164522 62 115 0.0 4.0 0.00 0.00 0.00 42 1018.5
20260507163011 61 295 1.0 5.0 0.00 0.00 0.00 47 1018.8
20260507161523 60 182 1.0 6.0 0.00 0.00 0.00 46 1019.0
20260507160027 59 190 1.0 4.0 0.00 0.00 0.00 52 1019.2
20260507154516 58 186 1.0 5.0 0.00 0.00 0.00 46 1019.4
20260507153022 57 187 1.0 3.0 0.00 0.00 0.00 55 1019.2
20260507151517 56 340 1.0 3.0 0.00 0.00 0.00 66 1019.2
20260507150017 54 128 0.0 2.0 0.00 0.00 0.00 72 1019.3
20260507144534 52 345 1.0 3.0 0.00 0.00 0.00 74 1019.4
20260507143023 51 216 0.0 3.0 0.00 0.00 0.00 76 1019.4
20260507141526 49 302 0.0 2.0 0.00 0.00 0.00 84 1019.4
20260507140025 47 126 0.0 3.0 0.00 0.00 0.00 90 1019.5
20260507134520 45 224 0.0 2.0 0.00 0.00 0.00 93 1019.9
20260507133021 44 180 0.0 1.0 0.00 0.00 0.00 94 1019.8
20260507131524 41 182 0.0 2.0 0.00 0.00 0.00 94 1019.9
20260507130023 40 138 0.0 2.0 0.00 0.00 0.00 93 1019.8
20260507124534 40 138 0.0 1.0 0.00 0.00 0.00 93 1019.7
20260507123021 39 138 0.0 2.0 0.00 0.00 0.00 93 1019.4